Location: Newark
(31.5350°N, 35.0986°E)
Time: 11:55:10
(UTC+00:00)

Vanguard 1 - Pass Details

Date: 23 September 2019
Orbit: 653 x 3830 km, 34.3° (Epoch: 14 October)

Event Time Altitude Azimuth Distance (km) Brightness Sun altitude
Rises 06:05:34 0° 289° (WNW) 6,973 13.9 31.9°
Reaches altitude 10° 06:11:20 10° 283° (WNW) 5,446 13.4 33.1°
Maximum altitude 06:23:47 35° 225° (SW) 2,591 12.4 35.5°
Drops below altitude 10° 06:31:09 10° 161° (SSE) 3,202 13.4 36.9°
Sets 06:33:39 0° 151° (SSE) 3,873 13.8 37.4°
